Location: Audinghen
(50.8518°N, 1.6129°E)
Time: 06:28:41
(UTC+00:00)

Meteor 1-21 Rocket - Pass Details

Date: 07 August 2020
Orbit: 832 x 908 km, 81.2° (Epoch: 23 September)

Event Time Altitude Azimuth Distance (km) Brightness Sun altitude
Rises 03:09:01 0° 346° (NNW) 3,418 7.8 -11.1°
Reaches altitude 10° 03:11:27 10° 347° (NNW) 2,471 7.0 -10.8°
Maximum altitude 03:17:02 85° 261° (W) 845 4.2 -10.2°
Drops below altitude 10° 03:22:34 10° 172° (S) 2,437 6.3 -9.5°
Sets 03:24:57 0° 172° (S) 3,367 7.0 -9.2°
